Time,TemperatureF,DewpointF,PressureIn,WindDirection,WindDirectionDegrees,WindSpeedMPH,WindSpeedGustMPH,Humidity,HourlyPrecipIn,Conditions,Clouds,dailyrainin,SoftwareType,DateUTC
2013-05-23 00:01:00,65.3,64.4,29.92,East,92,0.0,0.0,97,0.00,,,0.00,Wunderground v.1.15,2013-05-23 04:01:00,
2013-05-23 00:02:00,65.3,64.4,29.92,East,94,0.0,0.0,97,0.00,,,0.01,Wunderground v.1.15,2013-05-23 04:02:00,
2013-05-23 00:03:00,65.3,64.4,29.92,SW,214,0.0,0.0,97,0.00,,,0.01,Wunderground v.1.15,2013-05-23 04:03:00,
2013-05-23 00:04:00,65.3,64.4,29.92,SW,214,0.0,0.0,97,0.00,,,0.01,Wunderground v.1.15,2013-05-23 04:04:00,
2013-05-23 00:05:00,65.3,64.4,29.92,SW,214,0.0,0.0,97,0.00,,,0.01,Wunderground v.1.15,2013-05-23 04:05:00,
2013-05-23 00:11:00,65.2,64.3,29.92,SW,214,0.0,0.0,97,0.00,,,0.01,Wunderground v.1.15,2013-05-23 04:11:00,
2013-05-23 00:17:00,65.3,64.4,29.92,SSW,210,0.0,0.0,97,0.00,,,0.01,Wunderground v.1.15,2013-05-23 04:17:00,
2013-05-23 00:22:00,65.4,64.5,29.92,SW,224,0.0,0.0,97,0.18,,,0.03,Wunderground v.1.15,2013-05-23 04:22:00,
2013-05-23 00:28:00,65.3,64.4,29.92,SSW,212,0.0,0.0,97,0.19,,,0.04,Wunderground v.1.15,2013-05-23 04:28:00,
2013-05-23 00:34:00,65.2,64.3,29.92,SSE,162,0.0,1.0,97,0.18,,,0.06,Wunderground v.1.15,2013-05-23 04:34:00,
2013-05-23 00:40:00,65.2,64.3,29.93,SSE,162,0.0,0.0,97,0.08,,,0.07,Wunderground v.1.15,2013-05-23 04:40:00,
2013-05-23 00:46:00,65.2,64.3,29.93,SE,126,0.0,1.0,97,0.08,,,0.07,Wunderground v.1.15,2013-05-23 04:46:00,
2013-05-23 00:52:00,65.2,64.6,29.93,SE,127,0.0,0.0,98,0.05,,,0.07,Wunderground v.1.15,2013-05-23 04:52:00,
2013-05-23 00:58:00,65.2,64.6,29.93,WSW,250,1.0,1.0,98,0.00,,,0.07,Wunderground v.1.15,2013-05-23 04:58:00,
2013-05-23 01:04:00,65.2,64.6,29.92,WSW,250,0.0,1.0,98,0.00,,,0.07,Wunderground v.1.15,2013-05-23 05:04:00,
2013-05-23 01:10:00,65.1,64.5,29.93,WSW,252,0.0,0.0,98,0.00,,,0.07,Wunderground v.1.15,2013-05-23 05:10:00,
2013-05-23 01:15:00,65.0,64.4,29.92,WSW,252,0.0,1.0,98,0.00,,,0.07,Wunderground v.1.15,2013-05-23 05:15:00,
2013-05-23 01:20:00,65.0,64.4,29.92,WSW,252,0.0,0.0,98,0.00,,,0.07,Wunderground v.1.15,2013-05-23 05:20:00,
2013-05-23 01:25:00,65.0,64.4,29.92,WSW,252,0.0,0.0,98,0.00,,,0.07,Wunderground v.1.15,2013-05-23 05:25:00,
2013-05-23 01:31:00,64.9,64.3,29.92,WSW,252,0.0,0.0,98,0.00,,,0.07,Wunderground v.1.15,2013-05-23 05:31:00,
2013-05-23 01:37:00,65.0,64.4,29.92,WSW,252,0.0,0.0,98,0.00,,,0.07,Wunderground v.1.15,2013-05-23 05:37:00,
2013-05-23 01:43:00,64.9,64.3,29.93,WSW,257,0.0,0.0,98,0.00,,,0.07,Wunderground v.1.15,2013-05-23 05:43:00,
2013-05-23 01:49:00,65.0,64.4,29.93,West,267,0.0,0.0,98,0.00,,,0.07,Wunderground v.1.15,2013-05-23 05:49:00,
2013-05-23 01:55:00,65.0,64.4,29.93,West,277,0.0,0.0,98,0.00,,,0.07,Wunderground v.1.15,2013-05-23 05:55:00,
2013-05-23 02:00:00,65.0,64.4,29.93,West,271,1.0,2.0,98,0.00,,,0.07,Wunderground v.1.15,2013-05-23 06:00:00,
2013-05-23 02:05:00,65.0,64.4,29.93,West,271,1.0,2.0,98,0.00,,,0.07,Wunderground v.1.15,2013-05-23 06:05:00,
2013-05-23 02:10:00,65.0,64.4,29.92,West,269,0.0,1.0,98,0.00,,,0.07,Wunderground v.1.15,2013-05-23 06:10:00,
2013-05-23 02:15:00,65.0,64.4,29.92,WSW,255,0.0,2.0,98,0.00,,,0.07,Wunderground v.1.15,2013-05-23 06:15:00,
2013-05-23 02:20:00,64.9,64.3,29.92,WSW,245,0.0,1.0,98,0.00,,,0.07,Wunderground v.1.15,2013-05-23 06:20:00,
2013-05-23 02:25:00,64.9,64.3,29.92,WSW,245,0.0,1.0,98,0.00,,,0.07,Wunderground v.1.15,2013-05-23 06:25:00,
2013-05-23 02:30:00,65.0,64.4,29.92,WSW,244,0.0,0.0,98,0.00,,,0.07,Wunderground v.1.15,2013-05-23 06:30:00,
2013-05-23 02:35:00,65.0,64.4,29.92,WSW,242,0.0,0.0,98,0.00,,,0.07,Wunderground v.1.15,2013-05-23 06:35:00,
2013-05-23 02:40:00,65.0,64.4,29.92,WSW,242,0.0,0.0,98,0.00,,,0.07,Wunderground v.1.15,2013-05-23 06:40:00,
2013-05-23 02:45:00,65.1,64.5,29.92,WSW,242,0.0,0.0,98,0.00,,,0.07,Wunderground v.1.15,2013-05-23 06:45:00,
2013-05-23 02:50:00,65.1,64.5,29.92,SW,217,0.0,0.0,98,0.00,,,0.07,Wunderground v.1.15,2013-05-23 06:50:00,
2013-05-23 02:55:00,65.2,64.6,29.92,SW,217,0.0,1.0,98,0.00,,,0.07,Wunderground v.1.15,2013-05-23 06:55:00,
2013-05-23 03:00:00,65.2,64.6,29.91,SE,126,0.0,2.0,98,0.00,,,0.07,Wunderground v.1.15,2013-05-23 07:00:00,
2013-05-23 03:05:00,65.2,64.6,29.91,SSW,205,1.0,2.0,98,0.00,,,0.07,Wunderground v.1.15,2013-05-23 07:05:00,
2013-05-23 03:10:00,65.2,64.6,29.91,SSW,210,1.0,2.0,98,0.00,,,0.07,Wunderground v.1.15,2013-05-23 07:10:00,
2013-05-23 03:15:00,65.3,64.7,29.92,West,267,0.0,4.0,98,0.00,,,0.07,Wunderground v.1.15,2013-05-23 07:15:00,
2013-05-23 03:20:00,65.3,64.7,29.91,SW,217,1.0,1.0,98,0.00,,,0.07,Wunderground v.1.15,2013-05-23 07:20:00,
2013-05-23 03:25:00,65.3,64.7,29.91,SW,215,0.0,2.0,98,0.00,,,0.08,Wunderground v.1.15,2013-05-23 07:25:00,
2013-05-23 03:30:00,65.4,64.8,29.91,SW,218,0.0,1.0,98,0.00,,,0.08,Wunderground v.1.15,2013-05-23 07:30:00,
2013-05-23 03:35:00,65.4,64.8,29.91,SW,224,0.0,2.0,98,0.05,,,0.09,Wunderground v.1.15,2013-05-23 07:35:00,
2013-05-23 03:40:00,65.4,64.8,29.91,SW,224,0.0,1.0,98,0.05,,,0.09,Wunderground v.1.15,2013-05-23 07:40:00,
2013-05-23 03:45:00,65.4,64.8,29.91,SW,224,0.0,1.0,98,0.05,,,0.09,Wunderground v.1.15,2013-05-23 07:45:00,
2013-05-23 03:50:00,65.4,64.8,29.90,SW,224,0.0,1.0,98,0.04,,,0.10,Wunderground v.1.15,2013-05-23 07:50:00,
2013-05-23 03:55:00,65.4,64.8,29.90,SW,224,0.0,1.0,98,0.04,,,0.10,Wunderground v.1.15,2013-05-23 07:55:00,
2013-05-23 04:00:00,65.4,64.8,29.90,SW,224,0.0,0.0,98,0.04,,,0.10,Wunderground v.1.15,2013-05-23 08:00:00,
2013-05-23 04:05:00,65.3,64.7,29.90,SW,221,1.0,3.0,98,0.05,,,0.11,Wunderground v.1.15,2013-05-23 08:05:00,
2013-05-23 04:10:00,65.3,64.7,29.90,SW,221,0.0,0.0,98,0.05,,,0.11,Wunderground v.1.15,2013-05-23 08:10:00,
2013-05-23 04:15:00,65.3,64.7,29.90,South,177,0.0,0.0,98,0.05,,,0.11,Wunderground v.1.15,2013-05-23 08:15:00,
2013-05-23 04:20:00,65.3,64.7,29.90,ESE,118,0.0,0.0,98,0.00,,,0.12,Wunderground v.1.15,2013-05-23 08:20:00,
2013-05-23 04:25:00,65.3,64.7,29.89,ESE,118,0.0,0.0,98,0.00,,,0.12,Wunderground v.1.15,2013-05-23 08:25:00,
2013-05-23 04:30:00,65.2,64.6,29.89,ESE,118,0.0,0.0,98,0.00,,,0.12,Wunderground v.1.15,2013-05-23 08:30:00,
2013-05-23 04:35:00,65.2,64.6,29.89,ESE,118,0.0,0.0,98,0.00,,,0.12,Wunderground v.1.15,2013-05-23 08:35:00,
2013-05-23 04:41:00,65.2,64.6,29.89,ESE,118,0.0,0.0,98,0.00,,,0.12,Wunderground v.1.15,2013-05-23 08:41:00,
2013-05-23 04:46:00,65.2,64.6,29.89,ESE,120,0.0,0.0,98,0.00,,,0.12,Wunderground v.1.15,2013-05-23 08:46:00,
2013-05-23 04:51:00,65.1,64.5,29.89,SW,217,0.0,0.0,98,0.00,,,0.12,Wunderground v.1.15,2013-05-23 08:51:00,
2013-05-23 04:56:00,65.1,64.5,29.89,SW,219,0.0,0.0,98,0.00,,,0.12,Wunderground v.1.15,2013-05-23 08:56:00,
2013-05-23 05:01:00,65.0,64.4,29.90,WSW,246,0.0,0.0,98,0.00,,,0.12,Wunderground v.1.15,2013-05-23 09:01:00,
2013-05-23 05:06:00,65.0,64.4,29.90,WSW,246,0.0,0.0,98,0.00,,,0.12,Wunderground v.1.15,2013-05-23 09:06:00,
2013-05-23 05:11:00,65.0,64.4,29.90,West,262,0.0,0.0,98,0.00,,,0.12,Wunderground v.1.15,2013-05-23 09:11:00,
2013-05-23 05:16:00,64.9,64.3,29.91,West,274,0.0,1.0,98,0.00,,,0.12,Wunderground v.1.15,2013-05-23 09:16:00,
2013-05-23 05:21:00,64.9,64.3,29.91,West,273,0.0,1.0,98,0.00,,,0.12,Wunderground v.1.15,2013-05-23 09:21:00,
2013-05-23 05:26:00,64.9,64.3,29.91,West,272,0.0,1.0,98,0.00,,,0.12,Wunderground v.1.15,2013-05-23 09:26:00,
2013-05-23 05:31:00,64.9,64.3,29.91,West,272,0.0,1.0,98,0.00,,,0.12,Wunderground v.1.15,2013-05-23 09:31:00,
2013-05-23 05:36:00,64.8,64.2,29.91,WSW,253,0.0,1.0,98,0.00,,,0.12,Wunderground v.1.15,2013-05-23 09:36:00,
2013-05-23 05:41:00,64.8,64.2,29.91,WSW,252,0.0,0.0,98,0.00,,,0.12,Wunderground v.1.15,2013-05-23 09:41:00,
2013-05-23 05:46:00,64.8,64.2,29.91,WSW,253,0.0,1.0,98,0.00,,,0.12,Wunderground v.1.15,2013-05-23 09:46:00,
2013-05-23 05:51:00,64.7,64.1,29.91,WSW,253,0.0,0.0,98,0.00,,,0.12,Wunderground v.1.15,2013-05-23 09:51:00,
2013-05-23 05:56:00,64.7,64.1,29.91,WSW,253,0.0,0.0,98,0.00,,,0.12,Wunderground v.1.15,2013-05-23 09:56:00,
2013-05-23 06:01:00,64.6,64.0,29.91,WSW,253,0.0,0.0,98,0.00,,,0.12,Wunderground v.1.15,2013-05-23 10:01:00,
2013-05-23 06:06:00,64.6,64.0,29.91,WSW,253,0.0,0.0,98,0.00,,,0.12,Wunderground v.1.15,2013-05-23 10:06:00,
2013-05-23 06:11:00,64.6,64.0,29.91,WSW,253,0.0,0.0,98,0.00,,,0.12,Wunderground v.1.15,2013-05-23 10:11:00,
2013-05-23 06:16:00,64.6,64.3,29.92,WSW,253,0.0,1.0,99,0.00,,,0.12,Wunderground v.1.15,2013-05-23 10:16:00,
2013-05-23 06:21:00,64.6,64.0,29.91,WSW,252,0.0,0.0,98,0.00,,,0.12,Wunderground v.1.15,2013-05-23 10:21:00,
2013-05-23 06:26:00,64.5,63.9,29.91,WSW,253,0.0,0.0,98,0.00,,,0.13,Wunderground v.1.15,2013-05-23 10:26:00,
2013-05-23 06:31:00,64.5,64.2,29.92,WSW,252,1.0,1.0,99,0.00,,,0.13,Wunderground v.1.15,2013-05-23 10:31:00,
2013-05-23 06:36:00,64.5,64.2,29.92,WSW,253,0.0,1.0,99,0.00,,,0.13,Wunderground v.1.15,2013-05-23 10:36:00,
2013-05-23 06:41:00,64.5,64.2,29.92,WSW,253,0.0,1.0,99,0.00,,,0.13,Wunderground v.1.15,2013-05-23 10:41:00,
2013-05-23 06:46:00,64.5,64.2,29.92,WSW,253,0.0,1.0,99,0.00,,,0.13,Wunderground v.1.15,2013-05-23 10:46:00,
2013-05-23 06:51:00,64.6,64.3,29.92,WSW,253,0.0,0.0,99,0.00,,,0.13,Wunderground v.1.15,2013-05-23 10:51:00,
2013-05-23 06:56:00,64.7,64.4,29.93,WSW,253,0.0,0.0,99,0.00,,,0.13,Wunderground v.1.15,2013-05-23 10:56:00,
2013-05-23 07:01:00,64.9,64.6,29.93,WSW,257,0.0,2.0,99,0.00,,,0.13,Wunderground v.1.15,2013-05-23 11:01:00,
2013-05-23 07:06:00,65.1,64.8,29.92,West,263,0.0,2.0,99,0.00,,,0.13,Wunderground v.1.15,2013-05-23 11:06:00,
2013-05-23 07:11:00,65.2,64.9,29.92,West,263,0.0,0.0,99,0.00,,,0.13,Wunderground v.1.15,2013-05-23 11:11:00,
2013-05-23 07:16:00,65.2,64.6,29.92,West,264,1.0,2.0,98,0.00,,,0.13,Wunderground v.1.15,2013-05-23 11:16:00,
2013-05-23 07:21:00,65.2,64.6,29.92,West,266,1.0,2.0,98,0.00,,,0.13,Wunderground v.1.15,2013-05-23 11:21:00,
2013-05-23 07:26:00,65.2,64.6,29.92,WSW,257,0.0,2.0,98,0.00,,,0.13,Wunderground v.1.15,2013-05-23 11:26:00,
2013-05-23 07:31:00,65.1,64.5,29.92,WSW,247,0.0,2.0,98,0.00,,,0.13,Wunderground v.1.15,2013-05-23 11:31:00,
2013-05-23 07:36:00,65.3,64.7,29.92,WSW,248,0.0,2.0,98,0.00,,,0.13,Wunderground v.1.15,2013-05-23 11:36:00,
2013-05-23 07:41:00,65.4,64.8,29.92,WSW,248,0.0,0.0,98,0.00,,,0.13,Wunderground v.1.15,2013-05-23 11:41:00,
2013-05-23 07:46:00,65.4,64.8,29.92,WSW,248,0.0,0.0,98,0.00,,,0.13,Wunderground v.1.15,2013-05-23 11:46:00,
2013-05-23 07:51:00,65.6,65.0,29.92,West,280,0.0,0.0,98,0.00,,,0.13,Wunderground v.1.15,2013-05-23 11:51:00,
2013-05-23 07:56:00,65.8,65.2,29.92,West,280,0.0,0.0,98,0.00,,,0.13,Wunderground v.1.15,2013-05-23 11:56:00,
2013-05-23 08:01:00,65.9,65.0,29.92,SW,232,1.0,1.0,97,0.00,,,0.13,Wunderground v.1.15,2013-05-23 12:01:00,
2013-05-23 08:06:00,66.1,65.2,29.92,SW,232,0.0,1.0,97,0.00,,,0.13,Wunderground v.1.15,2013-05-23 12:06:00,
2013-05-23 08:11:00,66.2,65.3,29.92,SW,235,1.0,1.0,97,0.00,,,0.13,Wunderground v.1.15,2013-05-23 12:11:00,
2013-05-23 08:16:00,66.4,65.2,29.92,WSW,250,0.0,4.0,96,0.00,,,0.13,Wunderground v.1.15,2013-05-23 12:16:00,
2013-05-23 08:21:00,66.7,65.2,29.92,West,271,1.0,2.0,95,0.00,,,0.13,Wunderground v.1.15,2013-05-23 12:21:00,
2013-05-23 08:26:00,67.2,65.7,29.92,WNW,283,1.0,2.0,95,0.00,,,0.13,Wunderground v.1.15,2013-05-23 12:26:00,
2013-05-23 08:31:00,67.4,65.9,29.92,WNW,303,1.0,1.0,95,0.00,,,0.13,Wunderground v.1.15,2013-05-23 12:31:00,
2013-05-23 08:36:00,67.3,65.5,29.92,WNW,298,1.0,3.0,94,0.00,,,0.13,Wunderground v.1.15,2013-05-23 12:36:00,
2013-05-23 08:41:00,67.3,65.5,29.92,West,263,0.0,1.0,94,0.00,,,0.13,Wunderground v.1.15,2013-05-23 12:41:00,
2013-05-23 08:46:00,67.5,65.7,29.92,West,263,0.0,2.0,94,0.00,,,0.13,Wunderground v.1.15,2013-05-23 12:46:00,
2013-05-23 08:51:00,67.4,65.3,29.92,WSW,250,0.0,3.0,93,0.00,,,0.13,Wunderground v.1.15,2013-05-23 12:51:00,
2013-05-23 08:56:00,67.7,66.2,29.92,SW,225,2.0,3.0,95,0.00,,,0.13,Wunderground v.1.15,2013-05-23 12:56:00,
2013-05-23 09:01:00,67.8,65.4,29.92,SW,235,2.0,3.0,92,0.00,,,0.13,Wunderground v.1.15,2013-05-23 13:01:00,
2013-05-23 09:06:00,67.9,65.8,29.91,WSW,255,1.0,4.0,93,0.00,,,0.13,Wunderground v.1.15,2013-05-23 13:06:00,
2013-05-23 09:11:00,68.0,65.6,29.91,SW,224,1.0,1.0,92,0.00,,,0.13,Wunderground v.1.15,2013-05-23 13:11:00,
2013-05-23 09:16:00,68.1,65.7,29.91,West,270,1.0,2.0,92,0.00,,,0.13,Wunderground v.1.15,2013-05-23 13:16:00,
2013-05-23 09:21:00,68.2,65.8,29.92,SW,214,2.0,2.0,92,0.00,,,0.13,Wunderground v.1.15,2013-05-23 13:21:00,
2013-05-23 09:26:00,68.4,66.0,29.91,West,259,1.0,3.0,92,0.00,,,0.13,Wunderground v.1.15,2013-05-23 13:26:00,
2013-05-23 09:31:00,68.4,65.7,29.91,SW,228,1.0,2.0,91,0.00,,,0.13,Wunderground v.1.15,2013-05-23 13:31:00,
2013-05-23 09:36:00,68.4,65.7,29.91,WSW,252,1.0,2.0,91,0.00,,,0.13,Wunderground v.1.15,2013-05-23 13:36:00,
2013-05-23 09:41:00,68.4,65.7,29.91,WSW,256,0.0,2.0,91,0.00,,,0.13,Wunderground v.1.15,2013-05-23 13:41:00,
2013-05-23 09:46:00,68.3,65.6,29.92,SW,235,1.0,4.0,91,0.00,,,0.13,Wunderground v.1.15,2013-05-23 13:46:00,
2013-05-23 09:51:00,68.2,65.8,29.91,SSE,165,2.0,2.0,92,0.00,,,0.13,Wunderground v.1.15,2013-05-23 13:51:00,
2013-05-23 09:56:00,68.5,66.1,29.91,West,276,2.0,2.0,92,0.00,,,0.13,Wunderground v.1.15,2013-05-23 13:56:00,
2013-05-23 10:01:00,68.6,65.9,29.91,SW,214,1.0,3.0,91,0.00,,,0.13,Wunderground v.1.15,2013-05-23 14:01:00,
2013-05-23 10:06:00,68.6,65.9,29.91,NNW,344,1.0,5.0,91,0.00,,,0.13,Wunderground v.1.15,2013-05-23 14:06:00,
2013-05-23 10:11:00,68.7,65.6,29.91,West,264,1.0,3.0,90,0.00,,,0.13,Wunderground v.1.15,2013-05-23 14:11:00,
2013-05-23 10:16:00,68.9,66.2,29.91,WSW,240,1.0,3.0,91,0.00,,,0.13,Wunderground v.1.15,2013-05-23 14:16:00,
2013-05-23 10:21:00,69.3,66.6,29.91,West,272,0.0,2.0,91,0.00,,,0.13,Wunderground v.1.15,2013-05-23 14:21:00,
2013-05-23 10:26:00,69.4,66.0,29.91,WSW,255,0.0,4.0,89,0.00,,,0.13,Wunderground v.1.15,2013-05-23 14:26:00,
2013-05-23 10:31:00,69.8,66.4,29.91,WSW,255,1.0,2.0,89,0.00,,,0.13,Wunderground v.1.15,2013-05-23 14:31:00,
2013-05-23 10:36:00,70.1,66.7,29.91,SW,235,0.0,2.0,89,0.00,,,0.13,Wunderground v.1.15,2013-05-23 14:36:00,
2013-05-23 10:41:00,70.5,66.8,29.91,WSW,250,0.0,1.0,88,0.00,,,0.13,Wunderground v.1.15,2013-05-23 14:41:00,
2013-05-23 10:46:00,71.0,66.6,29.91,SW,214,3.0,3.0,86,0.00,,,0.13,Wunderground v.1.15,2013-05-23 14:46:00,
2013-05-23 10:51:00,71.1,66.7,29.91,WNW,300,1.0,3.0,86,0.00,,,0.13,Wunderground v.1.15,2013-05-23 14:51:00,
2013-05-23 10:56:00,71.0,66.9,29.91,WSW,246,2.0,3.0,87,0.00,,,0.13,Wunderground v.1.15,2013-05-23 14:56:00,
2013-05-23 11:01:00,71.1,67.0,29.91,WSW,250,1.0,2.0,87,0.00,,,0.13,Wunderground v.1.15,2013-05-23 15:01:00,
2013-05-23 11:06:00,71.5,67.1,29.91,West,280,1.0,2.0,86,0.00,,,0.13,Wunderground v.1.15,2013-05-23 15:06:00,
2013-05-23 11:11:00,71.4,67.0,29.91,West,274,2.0,4.0,86,0.00,,,0.13,Wunderground v.1.15,2013-05-23 15:11:00,
2013-05-23 11:16:00,71.3,66.6,29.91,West,267,4.0,5.0,85,0.00,,,0.13,Wunderground v.1.15,2013-05-23 15:16:00,
2013-05-23 11:21:00,71.0,66.6,29.91,West,262,2.0,4.0,86,0.00,,,0.13,Wunderground v.1.15,2013-05-23 15:21:00,
2013-05-23 11:26:00,70.9,66.8,29.91,West,259,2.0,4.0,87,0.00,,,0.13,Wunderground v.1.15,2013-05-23 15:26:00,
2013-05-23 11:32:00,70.9,66.5,29.91,WSW,257,1.0,3.0,86,0.00,,,0.13,Wunderground v.1.15,2013-05-23 15:32:00,
2013-05-23 11:37:00,70.9,66.5,29.91,WSW,242,1.0,5.0,86,0.00,,,0.13,Wunderground v.1.15,2013-05-23 15:37:00,
2013-05-23 11:42:00,70.9,66.5,29.91,West,280,2.0,4.0,86,0.00,,,0.13,Wunderground v.1.15,2013-05-23 15:42:00,
2013-05-23 11:47:00,71.1,67.0,29.91,WSW,254,0.0,4.0,87,0.00,,,0.13,Wunderground v.1.15,2013-05-23 15:47:00,
2013-05-23 11:52:00,71.1,66.7,29.91,WSW,243,2.0,3.0,86,0.00,,,0.13,Wunderground v.1.15,2013-05-23 15:52:00,
2013-05-23 11:57:00,71.1,67.0,29.91,SW,224,1.0,3.0,87,0.00,,,0.13,Wunderground v.1.15,2013-05-23 15:57:00,
2013-05-23 12:02:00,71.2,67.1,29.91,West,273,0.0,3.0,87,0.00,,,0.13,Wunderground v.1.15,2013-05-23 16:02:00,
2013-05-23 12:07:00,71.6,67.2,29.91,West,260,2.0,3.0,86,0.00,,,0.13,Wunderground v.1.15,2013-05-23 16:07:00,
2013-05-23 12:12:00,71.9,66.8,29.91,WSW,258,3.0,4.0,84,0.00,,,0.13,Wunderground v.1.15,2013-05-23 16:12:00,
2013-05-23 12:17:00,71.9,67.1,29.91,SW,222,1.0,4.0,85,0.00,,,0.13,Wunderground v.1.15,2013-05-23 16:17:00,
2013-05-23 12:22:00,72.1,67.0,29.91,West,266,0.0,4.0,84,0.00,,,0.13,Wunderground v.1.15,2013-05-23 16:22:00,
2013-05-23 12:27:00,72.2,67.1,29.91,WSW,253,1.0,4.0,84,0.00,,,0.13,Wunderground v.1.15,2013-05-23 16:27:00,
2013-05-23 12:32:00,72.2,67.1,29.90,West,260,1.0,4.0,84,0.00,,,0.13,Wunderground v.1.15,2013-05-23 16:32:00,
2013-05-23 12:37:00,72.2,67.1,29.90,West,269,0.0,4.0,84,0.00,,,0.13,Wunderground v.1.15,2013-05-23 16:37:00,
2013-05-23 12:42:00,72.1,67.0,29.90,WSW,245,2.0,4.0,84,0.00,,,0.13,Wunderground v.1.15,2013-05-23 16:42:00,
2013-05-23 12:47:00,72.0,66.9,29.90,SSW,205,1.0,4.0,84,0.00,,,0.13,Wunderground v.1.15,2013-05-23 16:47:00,
2013-05-23 12:52:00,71.9,67.1,29.90,WSW,250,0.0,2.0,85,0.00,,,0.13,Wunderground v.1.15,2013-05-23 16:52:00,
2013-05-23 12:57:00,72.0,67.2,29.90,West,276,2.0,3.0,85,0.00,,,0.13,Wunderground v.1.15,2013-05-23 16:57:00,
2013-05-23 13:02:00,71.8,67.0,29.90,West,271,1.0,3.0,85,0.00,,,0.13,Wunderground v.1.15,2013-05-23 17:02:00,
2013-05-23 13:07:00,71.9,67.1,29.90,West,263,2.0,3.0,85,0.00,,,0.13,Wunderground v.1.15,2013-05-23 17:07:00,
2013-05-23 13:12:00,72.0,67.6,29.89,SW,221,1.0,1.0,86,0.00,,,0.13,Wunderground v.1.15,2013-05-23 17:12:00,
2013-05-23 13:17:00,71.9,66.8,29.89,WNW,294,0.0,3.0,84,0.00,,,0.13,Wunderground v.1.15,2013-05-23 17:17:00,
2013-05-23 13:22:00,72.0,67.6,29.89,West,271,1.0,1.0,86,0.00,,,0.13,Wunderground v.1.15,2013-05-23 17:22:00,
2013-05-23 13:27:00,71.9,67.1,29.89,WSW,238,2.0,2.0,85,0.00,,,0.13,Wunderground v.1.15,2013-05-23 17:27:00,
2013-05-23 13:32:00,71.7,66.9,29.89,SW,218,0.0,2.0,85,0.00,,,0.13,Wunderground v.1.15,2013-05-23 17:32:00,
2013-05-23 13:37:00,71.7,67.3,29.89,West,273,0.0,2.0,86,0.00,,,0.13,Wunderground v.1.15,2013-05-23 17:37:00,
2013-05-23 13:42:00,71.6,67.2,29.89,West,269,3.0,3.0,86,0.00,,,0.13,Wunderground v.1.15,2013-05-23 17:42:00,
2013-05-23 13:47:00,71.2,67.1,29.89,WSW,242,1.0,3.0,87,0.00,,,0.13,Wunderground v.1.15,2013-05-23 17:47:00,
2013-05-23 13:52:00,71.0,67.3,29.89,WSW,242,1.0,2.0,88,0.00,,,0.13,Wunderground v.1.15,2013-05-23 17:52:00,
2013-05-23 13:57:00,70.9,67.2,29.88,West,262,0.0,2.0,88,0.00,,,0.13,Wunderground v.1.15,2013-05-23 17:57:00,
2013-05-23 14:02:00,71.2,67.8,29.88,WSW,252,1.0,2.0,89,0.00,,,0.13,Wunderground v.1.15,2013-05-23 18:02:00,
2013-05-23 14:07:00,71.3,68.2,29.88,WSW,243,2.0,2.0,90,0.00,,,0.13,Wunderground v.1.15,2013-05-23 18:07:00,
2013-05-23 14:12:00,71.4,67.7,29.88,SW,217,1.0,1.0,88,0.00,,,0.13,Wunderground v.1.15,2013-05-23 18:12:00,
2013-05-23 14:17:00,71.6,68.2,29.88,WSW,238,0.0,1.0,89,0.00,,,0.13,Wunderground v.1.15,2013-05-23 18:17:00,
2013-05-23 14:22:00,71.6,67.9,29.87,WSW,248,1.0,3.0,88,0.00,,,0.13,Wunderground v.1.15,2013-05-23 18:22:00,
2013-05-23 14:27:00,71.7,68.0,29.87,SW,217,2.0,3.0,88,0.00,,,0.13,Wunderground v.1.15,2013-05-23 18:27:00,
2013-05-23 14:32:00,71.8,67.7,29.87,WSW,248,0.0,3.0,87,0.00,,,0.13,Wunderground v.1.15,2013-05-23 18:32:00,
2013-05-23 14:37:00,71.9,67.8,29.86,SW,219,0.0,3.0,87,0.00,,,0.13,Wunderground v.1.15,2013-05-23 18:37:00,
2013-05-23 14:42:00,72.3,68.2,29.86,SW,228,1.0,4.0,87,0.00,,,0.13,Wunderground v.1.15,2013-05-23 18:42:00,
2013-05-23 14:47:00,72.3,68.2,29.86,SW,226,1.0,4.0,87,0.00,,,0.13,Wunderground v.1.15,2013-05-23 18:47:00,
2013-05-23 14:52:00,72.6,67.8,29.86,SSW,212,1.0,4.0,85,0.00,,,0.13,Wunderground v.1.15,2013-05-23 18:52:00,
2013-05-23 14:57:00,72.9,68.1,29.85,WSW,252,1.0,4.0,85,0.00,,,0.13,Wunderground v.1.15,2013-05-23 18:57:00,
2013-05-23 15:02:00,73.5,68.4,29.85,WSW,243,0.0,3.0,84,0.00,,,0.13,Wunderground v.1.15,2013-05-23 19:02:00,
2013-05-23 15:07:00,73.7,68.2,29.85,SSW,205,1.0,5.0,83,0.00,,,0.13,Wunderground v.1.15,2013-05-23 19:07:00,
2013-05-23 15:13:00,74.3,69.1,29.85,West,276,1.0,3.0,84,0.00,,,0.13,Wunderground v.1.15,2013-05-23 19:13:00,
2013-05-23 15:18:00,74.9,68.7,29.84,WSW,250,3.0,3.0,81,0.00,,,0.13,Wunderground v.1.15,2013-05-23 19:18:00,
2013-05-23 15:23:00,75.3,68.3,29.84,West,262,2.0,5.0,79,0.00,,,0.13,Wunderground v.1.15,2013-05-23 19:23:00,
2013-05-23 15:28:00,75.8,68.8,29.83,WNW,284,3.0,4.0,79,0.00,,,0.13,Wunderground v.1.15,2013-05-23 19:28:00,
2013-05-23 15:33:00,76.0,69.0,29.83,WSW,253,1.0,4.0,79,0.00,,,0.13,Wunderground v.1.15,2013-05-23 19:33:00,
2013-05-23 15:38:00,76.6,70.0,29.83,West,264,2.0,2.0,80,0.00,,,0.13,Wunderground v.1.15,2013-05-23 19:38:00,
2013-05-23 15:43:00,77.1,69.7,29.83,SE,140,1.0,3.0,78,0.00,,,0.13,Wunderground v.1.15,2013-05-23 19:43:00,
2013-05-23 15:48:00,77.0,69.2,29.82,SSW,200,1.0,2.0,77,0.00,,,0.13,Wunderground v.1.15,2013-05-23 19:48:00,
2013-05-23 15:53:00,76.7,68.6,29.82,WNW,285,1.0,4.0,76,0.00,,,0.13,Wunderground v.1.15,2013-05-23 19:53:00,
2013-05-23 15:58:00,77.0,69.6,29.82,WSW,257,2.0,2.0,78,0.00,,,0.13,Wunderground v.1.15,2013-05-23 19:58:00,
2013-05-23 16:03:00,76.7,68.6,29.82,SE,129,1.0,7.0,76,0.00,,,0.13,Wunderground v.1.15,2013-05-23 20:03:00,
2013-05-23 16:08:00,77.5,70.1,29.82,ESE,122,2.0,2.0,78,0.00,,,0.13,Wunderground v.1.15,2013-05-23 20:08:00,
2013-05-23 16:13:00,77.7,68.7,29.82,WSW,248,1.0,4.0,74,0.00,,,0.13,Wunderground v.1.15,2013-05-23 20:13:00,
2013-05-23 16:18:00,77.7,69.5,29.81,SSW,212,0.0,2.0,76,0.00,,,0.13,Wunderground v.1.15,2013-05-23 20:18:00,
2013-05-23 16:23:00,77.7,68.4,29.81,West,274,1.0,7.0,73,0.00,,,0.13,Wunderground v.1.15,2013-05-23 20:23:00,
2013-05-23 16:28:00,78.1,68.7,29.81,SE,129,1.0,1.0,73,0.00,,,0.13,Wunderground v.1.15,2013-05-23 20:28:00,
2013-05-23 16:33:00,78.2,68.8,29.81,SSW,213,3.0,3.0,73,0.00,,,0.13,Wunderground v.1.15,2013-05-23 20:33:00,
2013-05-23 16:38:00,78.5,69.1,29.81,SE,139,1.0,1.0,73,0.00,,,0.13,Wunderground v.1.15,2013-05-23 20:38:00,
2013-05-23 16:43:00,78.8,70.2,29.80,SW,233,3.0,4.0,75,0.00,,,0.13,Wunderground v.1.15,2013-05-23 20:43:00,
2013-05-23 16:48:00,79.4,69.6,29.79,SSE,153,1.0,1.0,72,0.00,,,0.13,Wunderground v.1.15,2013-05-23 20:48:00,
2013-05-23 16:53:00,79.4,68.8,29.80,SSW,210,1.0,4.0,70,0.00,,,0.13,Wunderground v.1.15,2013-05-23 20:53:00,
2013-05-23 16:59:00,79.7,69.9,29.80,SW,226,3.0,3.0,72,0.00,,,0.13,Wunderground v.1.15,2013-05-23 20:59:00,
2013-05-23 17:04:00,79.6,69.4,29.80,SSE,151,2.0,6.0,71,0.00,,,0.13,Wunderground v.1.15,2013-05-23 21:04:00,
2013-05-23 17:09:00,79.7,69.0,29.80,West,259,2.0,2.0,70,0.00,,,0.13,Wunderground v.1.15,2013-05-23 21:09:00,
2013-05-23 17:14:00,79.3,69.5,29.81,SSW,203,1.0,6.0,72,0.00,,,0.13,Wunderground v.1.15,2013-05-23 21:14:00,
2013-05-23 17:19:00,79.0,69.2,29.80,SSW,211,1.0,2.0,72,0.00,,,0.13,Wunderground v.1.15,2013-05-23 21:19:00,
2013-05-23 17:24:00,79.3,69.5,29.80,SW,235,2.0,3.0,72,0.00,,,0.13,Wunderground v.1.15,2013-05-23 21:24:00,
2013-05-23 17:29:00,79.6,69.4,29.80,WSW,249,3.0,3.0,71,0.00,,,0.13,Wunderground v.1.15,2013-05-23 21:29:00,
2013-05-23 17:34:00,78.5,68.7,29.80,WSW,249,5.0,5.0,72,0.00,,,0.13,Wunderground v.1.15,2013-05-23 21:34:00,
2013-05-23 17:39:00,77.4,68.5,29.80,SSW,208,0.0,2.0,74,0.00,,,0.13,Wunderground v.1.15,2013-05-23 21:39:00,
2013-05-23 17:44:00,76.7,68.2,29.80,WSW,239,1.0,2.0,75,0.00,,,0.13,Wunderground v.1.15,2013-05-23 21:44:00,
2013-05-23 17:49:00,76.4,68.7,29.80,WSW,250,0.0,1.0,77,0.00,,,0.13,Wunderground v.1.15,2013-05-23 21:49:00,
2013-05-23 17:54:00,76.3,68.6,29.80,West,260,1.0,2.0,77,0.00,,,0.13,Wunderground v.1.15,2013-05-23 21:54:00,
2013-05-23 17:59:00,76.7,68.6,29.79,SSW,204,1.0,2.0,76,0.00,,,0.13,Wunderground v.1.15,2013-05-23 21:59:00,
2013-05-23 18:04:00,77.5,69.3,29.79,SW,214,2.0,4.0,76,0.00,,,0.13,Wunderground v.1.15,2013-05-23 22:04:00,
2013-05-23 18:09:00,77.8,68.8,29.79,SW,231,0.0,2.0,74,0.00,,,0.13,Wunderground v.1.15,2013-05-23 22:09:00,
2013-05-23 18:14:00,78.6,69.6,29.80,West,260,1.0,2.0,74,0.00,,,0.13,Wunderground v.1.15,2013-05-23 22:14:00,
2013-05-23 18:19:00,79.0,69.6,29.80,SW,235,3.0,3.0,73,0.00,,,0.13,Wunderground v.1.15,2013-05-23 22:19:00,
2013-05-23 18:24:00,78.8,68.6,29.79,West,264,1.0,5.0,71,0.00,,,0.13,Wunderground v.1.15,2013-05-23 22:24:00,
2013-05-23 18:29:00,79.1,69.3,29.80,West,277,1.0,2.0,72,0.00,,,0.13,Wunderground v.1.15,2013-05-23 22:29:00,
2013-05-23 18:34:00,79.2,69.4,29.80,SW,219,1.0,4.0,72,0.00,,,0.13,Wunderground v.1.15,2013-05-23 22:34:00,
2013-05-23 18:39:00,79.2,69.0,29.80,SSW,203,1.0,3.0,71,0.00,,,0.13,Wunderground v.1.15,2013-05-23 22:39:00,
2013-05-23 18:44:00,78.7,68.5,29.80,SSW,200,3.0,5.0,71,0.00,,,0.13,Wunderground v.1.15,2013-05-23 22:44:00,
2013-05-23 18:49:00,78.4,69.0,29.80,SW,215,2.0,3.0,73,0.00,,,0.13,Wunderground v.1.15,2013-05-23 22:49:00,
2013-05-23 18:54:00,77.8,68.4,29.80,SW,222,2.0,5.0,73,0.00,,,0.13,Wunderground v.1.15,2013-05-23 22:54:00,
2013-05-23 18:59:00,77.9,68.9,29.80,SSW,210,2.0,2.0,74,0.00,,,0.13,Wunderground v.1.15,2013-05-23 22:59:00,
2013-05-23 19:04:00,78.1,68.7,29.80,SSW,194,1.0,4.0,73,0.00,,,0.13,Wunderground v.1.15,2013-05-23 23:04:00,
2013-05-23 19:09:00,78.3,68.9,29.80,WSW,238,1.0,2.0,73,0.00,,,0.13,Wunderground v.1.15,2013-05-23 23:09:00,
2013-05-23 19:14:00,78.2,68.4,29.80,SSW,211,3.0,3.0,72,0.00,,,0.13,Wunderground v.1.15,2013-05-23 23:14:00,
2013-05-23 19:20:00,78.2,68.8,29.80,WSW,248,1.0,2.0,73,0.00,,,0.13,Wunderground v.1.15,2013-05-23 23:20:00,
2013-05-23 19:25:00,77.9,68.5,29.80,WSW,248,1.0,4.0,73,0.00,,,0.13,Wunderground v.1.15,2013-05-23 23:25:00,
2013-05-23 19:30:00,77.6,67.4,29.79,West,277,0.0,2.0,71,0.00,,,0.13,Wunderground v.1.15,2013-05-23 23:30:00,
2013-05-23 19:35:00,77.1,66.1,29.79,WNW,302,2.0,2.0,69,0.00,,,0.13,Wunderground v.1.15,2013-05-23 23:35:00,
2013-05-23 19:40:00,76.0,65.5,29.79,West,280,0.0,1.0,70,0.00,,,0.13,Wunderground v.1.15,2013-05-23 23:40:00,
2013-05-23 19:45:00,75.1,65.5,29.79,West,280,0.0,1.0,72,0.00,,,0.13,Wunderground v.1.15,2013-05-23 23:45:00,
2013-05-23 19:50:00,74.3,66.2,29.79,West,280,0.0,0.0,76,0.00,,,0.13,Wunderground v.1.15,2013-05-23 23:50:00,
2013-05-23 19:55:00,73.2,65.6,29.80,West,280,0.0,1.0,77,0.00,,,0.13,Wunderground v.1.15,2013-05-23 23:55:00,
2013-05-23 20:00:00,72.3,65.4,29.79,West,280,0.0,0.0,79,0.00,,,0.13,Wunderground v.1.15,2013-05-24 00:00:00,
2013-05-23 20:05:00,71.5,65.4,29.80,West,280,0.0,0.0,81,0.00,,,0.13,Wunderground v.1.15,2013-05-24 00:05:00,
2013-05-23 20:10:00,71.0,64.9,29.80,West,280,0.0,0.0,81,0.00,,,0.13,Wunderground v.1.15,2013-05-24 00:10:00,
2013-05-23 20:15:00,70.5,65.4,29.80,West,280,0.0,0.0,84,0.00,,,0.13,Wunderground v.1.15,2013-05-24 00:15:00,
2013-05-23 20:20:00,69.8,65.1,29.80,West,280,0.0,0.0,85,0.00,,,0.13,Wunderground v.1.15,2013-05-24 00:20:00,
2013-05-23 20:25:00,69.2,64.8,29.80,West,280,0.0,0.0,86,0.00,,,0.13,Wunderground v.1.15,2013-05-24 00:25:00,
2013-05-23 20:30:00,68.8,64.4,29.80,West,280,0.0,0.0,86,0.00,,,0.13,Wunderground v.1.15,2013-05-24 00:30:00,
2013-05-23 20:35:00,68.5,64.8,29.80,West,280,0.0,0.0,88,0.00,,,0.13,Wunderground v.1.15,2013-05-24 00:35:00,
2013-05-23 20:40:00,68.2,64.8,29.81,West,280,0.0,0.0,89,0.00,,,0.13,Wunderground v.1.15,2013-05-24 00:40:00,
2013-05-23 20:45:00,67.9,64.9,29.81,West,280,0.0,0.0,90,0.00,,,0.13,Wunderground v.1.15,2013-05-24 00:45:00,
2013-05-23 20:50:00,68.0,64.6,29.83,WSW,245,2.0,5.0,89,0.00,,,0.13,Wunderground v.1.15,2013-05-24 00:50:00,
2013-05-23 20:55:00,68.7,63.3,29.83,West,280,3.0,8.0,83,0.00,,,0.13,Wunderground v.1.15,2013-05-24 00:55:00,
2013-05-23 21:00:00,68.7,63.7,29.84,SW,228,6.0,9.0,84,0.75,,,0.16,Wunderground v.1.15,2013-05-24 01:00:00,
2013-05-23 21:05:00,67.3,63.3,29.84,North,352,3.0,9.0,87,0.16,,,0.17,Wunderground v.1.15,2013-05-24 01:05:00,
2013-05-23 21:10:00,66.3,62.6,29.84,WNW,296,2.0,5.0,88,0.17,,,0.19,Wunderground v.1.15,2013-05-24 01:10:00,
2013-05-23 21:15:00,65.4,62.4,29.84,NW,322,0.0,5.0,90,0.13,,,0.20,Wunderground v.1.15,2013-05-24 01:15:00,
2013-05-23 21:20:00,64.8,62.1,29.84,NW,322,0.0,1.0,91,0.15,,,0.21,Wunderground v.1.15,2013-05-24 01:20:00,
2013-05-23 21:25:00,64.4,62.0,29.84,NW,322,0.0,1.0,92,0.08,,,0.21,Wunderground v.1.15,2013-05-24 01:25:00,
2013-05-23 21:30:00,64.1,62.0,29.84,NW,323,0.0,0.0,93,0.05,,,0.21,Wunderground v.1.15,2013-05-24 01:30:00,
2013-05-23 21:35:00,63.9,62.1,29.84,NW,323,0.0,0.0,94,0.00,,,0.21,Wunderground v.1.15,2013-05-24 01:35:00,
2013-05-23 21:40:00,63.8,62.0,29.84,NW,323,0.0,0.0,94,0.00,,,0.21,Wunderground v.1.15,2013-05-24 01:40:00,
2013-05-23 21:45:00,63.8,62.3,29.84,NW,323,0.0,0.0,95,0.00,,,0.21,Wunderground v.1.15,2013-05-24 01:45:00,
2013-05-23 21:50:00,63.7,62.2,29.85,NW,323,0.0,0.0,95,0.00,,,0.21,Wunderground v.1.15,2013-05-24 01:50:00,
2013-05-23 21:56:00,63.7,62.5,29.85,WNW,285,0.0,1.0,96,0.00,,,0.21,Wunderground v.1.15,2013-05-24 01:56:00,
2013-05-23 22:01:00,63.6,62.4,29.85,WSW,252,2.0,2.0,96,0.00,,,0.21,Wunderground v.1.15,2013-05-24 02:01:00,
2013-05-23 22:06:00,63.4,62.2,29.86,SW,218,0.0,2.0,96,0.00,,,0.21,Wunderground v.1.15,2013-05-24 02:06:00,
2013-05-23 22:11:00,63.4,62.5,29.86,SW,218,0.0,1.0,97,0.00,,,0.21,Wunderground v.1.15,2013-05-24 02:11:00,
2013-05-23 22:16:00,63.4,62.5,29.87,WSW,240,0.0,1.0,97,0.00,,,0.21,Wunderground v.1.15,2013-05-24 02:16:00,
2013-05-23 22:21:00,63.4,62.5,29.87,WSW,239,0.0,0.0,97,0.00,,,0.21,Wunderground v.1.15,2013-05-24 02:21:00,
2013-05-23 22:26:00,63.3,62.4,29.86,WSW,242,0.0,0.0,97,0.00,,,0.21,Wunderground v.1.15,2013-05-24 02:26:00,
2013-05-23 22:31:00,63.2,62.3,29.86,WSW,248,0.0,0.0,97,0.00,,,0.21,Wunderground v.1.15,2013-05-24 02:31:00,
2013-05-23 22:36:00,63.1,62.2,29.86,WSW,242,1.0,2.0,97,0.00,,,0.21,Wunderground v.1.15,2013-05-24 02:36:00,
2013-05-23 22:41:00,63.2,62.3,29.86,West,267,0.0,1.0,97,0.00,,,0.21,Wunderground v.1.15,2013-05-24 02:41:00,
2013-05-23 22:46:00,63.1,62.2,29.87,WSW,248,0.0,2.0,97,0.00,,,0.21,Wunderground v.1.15,2013-05-24 02:46:00,
2013-05-23 22:51:00,63.1,62.2,29.87,WSW,248,0.0,0.0,97,0.00,,,0.21,Wunderground v.1.15,2013-05-24 02:51:00,
2013-05-23 22:56:00,63.0,62.1,29.86,WSW,248,0.0,0.0,97,0.00,,,0.21,Wunderground v.1.15,2013-05-24 02:56:00,
2013-05-23 23:01:00,63.0,62.1,29.86,WSW,248,0.0,0.0,97,0.00,,,0.21,Wunderground v.1.15,2013-05-24 03:01:00,
2013-05-23 23:06:00,62.9,62.0,29.86,WSW,248,0.0,0.0,97,0.00,,,0.21,Wunderground v.1.15,2013-05-24 03:06:00,
2013-05-23 23:11:00,62.9,62.0,29.86,WSW,248,0.0,0.0,97,0.00,,,0.21,Wunderground v.1.15,2013-05-24 03:11:00,
2013-05-23 23:16:00,62.8,61.9,29.86,WSW,248,1.0,1.0,97,0.00,,,0.21,Wunderground v.1.15,2013-05-24 03:16:00,
2013-05-23 23:21:00,62.7,61.8,29.85,WSW,248,0.0,0.0,97,0.00,,,0.21,Wunderground v.1.15,2013-05-24 03:21:00,
2013-05-23 23:26:00,62.6,61.7,29.85,WSW,248,0.0,0.0,97,0.00,,,0.21,Wunderground v.1.15,2013-05-24 03:26:00,
2013-05-23 23:31:00,62.6,61.7,29.85,WSW,248,0.0,0.0,97,0.00,,,0.21,Wunderground v.1.15,2013-05-24 03:31:00,
2013-05-23 23:36:00,62.5,61.6,29.85,WSW,248,0.0,0.0,97,0.00,,,0.21,Wunderground v.1.15,2013-05-24 03:36:00,
2013-05-23 23:41:00,62.5,61.6,29.85,WSW,248,0.0,0.0,97,0.00,,,0.21,Wunderground v.1.15,2013-05-24 03:41:00,
2013-05-23 23:46:00,62.4,61.5,29.86,WSW,248,0.0,0.0,97,0.00,,,0.22,Wunderground v.1.15,2013-05-24 03:46:00,
2013-05-23 23:51:00,62.4,61.8,29.85,WSW,248,0.0,0.0,98,0.00,,,0.22,Wunderground v.1.15,2013-05-24 03:51:00,
2013-05-23 23:56:00,62.4,61.8,29.85,WSW,248,0.0,0.0,98,0.00,,,0.22,Wunderground v.1.15,2013-05-24 03:56:00,